Regional Weather Roundup
Issued by NWS

Home | Current Version | Previous Version | Text Only | Print | Product List | Glossary On
Versions: 1 2 3 4 5 6 7 8 9 10 11 12 13 14 15 16 17 18 19 20 21 22 23 24 25 26 27 28
000
ASUS44 KLIX 172113
RWRLA
LOUISIANA WEATHER ROUNDUP
NATIONAL WEATHER SERVICE NEW ORLEANS LA
400 PM CDT TUE OCT 17 2017

NOTE: "FAIR" INDICATES FEW OR NO CLOUDS BELOW 12,000 FEET WITH NO
      SIGNIFICANT WEATHER AND/OR OBSTRUCTIONS TO VISIBILITY.
      SKY/WX - SKY CONDITION AND SIGNIFICANT WEATHER.
      TMP - AIR TEMPERATURE.    DP   - DEWPOINT TEMPERATURE.
      RH  - RELATIVE HUMIDITY.  PRES - PRESSURE.
      HX  - HEAT INDEX.         WCI  - WIND CHILL INDEX.

*  THESE STATIONS ARE NOT NWS OR FAA STATIONS AND ARE NOT UNDER
   NWS QUALITY CONTROL.

LAZ040-048-061>063-065-066-069-172200-
SOUTHEAST LOUISIANA

CITY           SKY/WX    TMP DP  RH WIND       PRES   REMARKS
N.O. INTL ARPT MOSUNNY   74  59  59 NE7       30.14F
N.O. LAKEFRONT SUNNY     75  60  59 N6        30.14F
N.O. DOWNTOWN* FAIR      72  59  63 VRB7      30.14F
RESERVE*       FAIR      76  55  46 NE5       30.14F
SLIDELL        SUNNY     78  56  46 NE5       30.13F
BATON ROUGE    SUNNY     77  52  41 N9        30.14F
BOOTHVILLE     MOSUNNY   77  65  66 NE10      30.11S
BELLE CHASSE   NOT AVBL
BOGALUSA*      FAIR      79  53  39 NE12      30.16S
GALLIANO*      PTCLDY    73  58  60 NE9       30.13S
NEW ROADS*     FAIR      76  52  42 N6        30.14F
GONZALES*      FAIR      76  53  44 NE6       30.13S
HAMMOND*       SUNNY     79  52  38 N7        30.14S
HOUMA*         SUNNY     73  55  53 NE13      30.13F
PORT FOURCHON* PTCLDY    73  61  64 NE15      30.12F

$$

LAZ041-044-053-054-172200-
SOUTHWEST LOUISIANA

CITY           SKY/WX    TMP DP  RH WIND       PRES   REMARKS
LAKE CHARLES   SUNNY     79  44  28 NE10      30.14F
LAFAYETTE      SUNNY     78  47  33 N13       30.13F
PATTERSON      NOT AVBL
SALT POINT       N/A     77  49  37 VRB5      30.11F
NEW IBERIA     SUNNY     78  45  30 NE12      30.13F
CHENAULT AIRPK SUNNY     79  46  31 NE8       30.14F

$$

LAZ027-028-172200-
CENTRAL LOUISIANA

CITY           SKY/WX    TMP DP  RH WIND       PRES   REMARKS
FORT POLK      SUNNY     75  43  31 NE6       30.15F
ALEXANDRIA INT SUNNY     78  40  25 NE8       30.14F
ALEXANDRIA     SUNNY     79  42  26 N8        30.16F

$$

LAZ001-002-172200-
NORTHWEST LOUISIANA

CITY           SKY/WX    TMP DP  RH WIND       PRES   REMARKS
SHREVEPORT     SUNNY     75  40  28 E5        30.18F SMOKE
BARKSDALE AFB  SUNNY     76  38  25 NE6       30.18F
DTN SHREVEPORT SUNNY     76  41  28 VRB3      30.18F

$$

LAZ014-016-172200-
NORTHEAST LOUISIANA

CITY           SKY/WX    TMP DP  RH WIND       PRES   REMARKS
MONROE         SUNNY     75  45  34 N5        30.20F
TALLULAH       SUNNY     76  53  44 N8        30.18F

$$





USA.gov is the U.S. government's official web portal to all federal, state and local government web resources and services.